AAY1558 KBNA-KATW

Flight info

Callsign AAY1558
Flight time 1h 23m
Altitude 38000
Route GDOGG4 FAPER TTH DNV OBK J89 BAE CORIR
Aircraft B738/M-SDE2E3FGHIRWXY/LB1

Departure

Time 2026-05-06 10:31
Airport Nashville International Airport (KBNA)

Arrival

Time 2026-05-06 11:54
Airport Appleton International Airport (KATW)
Time Latitude Longitude Altitude Speed Heading
2026-05-06 10:01 36.12833 -86.66655 569 ft 0 kts 87°
2026-05-06 10:15 36.12833 -86.66664 569 ft 4 kts 87°
2026-05-06 10:15 36.12832 -86.66696 569 ft 4 kts 87°
2026-05-06 10:15 36.12832 -86.66724 569 ft 4 kts 107°
2026-05-06 10:16 36.12845 -86.66750 573 ft 4 kts 146°
2026-05-06 10:16 36.12856 -86.66758 568 ft 0 kts 156°
2026-05-06 10:20 36.12851 -86.66755 568 ft 2 kts 156°
2026-05-06 10:20 36.12826 -86.66743 570 ft 5 kts 160°
2026-05-06 10:20 36.12793 -86.66738 570 ft 5 kts 180°
2026-05-06 10:20 36.12759 -86.66743 568 ft 5 kts 194°
2026-05-06 10:21 36.12729 -86.66761 568 ft 5 kts 213°
2026-05-06 10:21 36.12703 -86.66787 568 ft 5 kts 220°
2026-05-06 10:21 36.12679 -86.66813 570 ft 5 kts 222°
2026-05-06 10:21 36.12653 -86.66840 570 ft 5 kts 212°
2026-05-06 10:22 36.12622 -86.66859 570 ft 5 kts 207°
2026-05-06 10:22 36.12588 -86.66882 573 ft 7 kts 209°
2026-05-06 10:22 36.12545 -86.66912 571 ft 8 kts 210°
2026-05-06 10:22 36.12491 -86.66951 577 ft 10 kts 208°
2026-05-06 10:23 36.12430 -86.66934 571 ft 11 kts 137°
2026-05-06 10:23 36.12375 -86.66856 573 ft 13 kts 129°
2026-05-06 10:23 36.12344 -86.66788 570 ft 0 kts 117°
2026-05-06 10:23 36.12342 -86.66781 570 ft 3 kts 111°
2026-05-06 10:24 36.12333 -86.66734 576 ft 7 kts 111°
2026-05-06 10:24 36.12313 -86.66657 571 ft 11 kts 108°
2026-05-06 10:24 36.12287 -86.66564 575 ft 9 kts 112°
2026-05-06 10:24 36.12275 -86.66539 571 ft 2 kts 129°
2026-05-06 10:25 36.12263 -86.66529 569 ft 2 kts 152°
2026-05-06 10:25 36.12247 -86.66528 571 ft 3 kts 188°
2026-05-06 10:25 36.12228 -86.66534 568 ft 3 kts 193°
2026-05-06 10:25 36.12207 -86.66540 571 ft 3 kts 193°
2026-05-06 10:26 36.12180 -86.66548 568 ft 6 kts 195°
2026-05-06 10:26 36.12132 -86.66565 570 ft 8 kts 196°
2026-05-06 10:26 36.12083 -86.66584 573 ft 7 kts 199°
2026-05-06 10:26 36.12036 -86.66604 575 ft 7 kts 199°
2026-05-06 10:27 36.11990 -86.66623 579 ft 7 kts 198°
2026-05-06 10:27 36.11945 -86.66641 577 ft 7 kts 198°
2026-05-06 10:27 36.11900 -86.66659 578 ft 7 kts 198°
2026-05-06 10:27 36.11857 -86.66677 580 ft 7 kts 198°
2026-05-06 10:28 36.11812 -86.66695 581 ft 7 kts 198°
2026-05-06 10:28 36.11766 -86.66713 583 ft 7 kts 198°
2026-05-06 10:28 36.11717 -86.66734 585 ft 8 kts 198°
2026-05-06 10:28 36.11656 -86.66756 586 ft 10 kts 197°
2026-05-06 10:29 36.11582 -86.66785 587 ft 12 kts 198°
2026-05-06 10:29 36.11499 -86.66819 590 ft 13 kts 198°
2026-05-06 10:29 36.11418 -86.66852 591 ft 12 kts 199°
2026-05-06 10:29 36.11348 -86.66880 591 ft 9 kts 188°
2026-05-06 10:30 36.11302 -86.66833 590 ft 10 kts 108°
2026-05-06 10:30 36.11339 -86.66742 590 ft 19 kts 17°
2026-05-06 10:30 36.11684 -86.66604 587 ft 97 kts 17°
2026-05-06 10:30 36.12624 -86.66231 642 ft 176 kts 19°
2026-05-06 10:31 36.13869 -86.65630 1288 ft 206 kts 20°
2026-05-06 10:31 36.15300 -86.65014 2117 ft 231 kts 13°
2026-05-06 10:31 36.16910 -86.64572 2927 ft 240 kts
2026-05-06 10:31 36.18549 -86.64207 3838 ft 238 kts
2026-05-06 10:32 36.20233 -86.63817 4448 ft 259 kts
2026-05-06 10:32 36.22095 -86.63336 4940 ft 283 kts
2026-05-06 10:32 36.24029 -86.62777 5868 ft 285 kts
2026-05-06 10:32 36.25933 -86.62205 6817 ft 287 kts
2026-05-06 10:33 36.27912 -86.61610 7697 ft 290 kts
2026-05-06 10:33 36.29850 -86.61404 8544 ft 277 kts 341°
2026-05-06 10:33 36.31664 -86.62012 9488 ft 271 kts 333°
2026-05-06 10:33 36.33469 -86.62757 10320 ft 274 kts 332°
2026-05-06 10:34 36.35281 -86.63523 11145 ft 276 kts 331°
2026-05-06 10:34 36.37105 -86.64292 12004 ft 278 kts 331°
2026-05-06 10:34 36.38952 -86.65068 12779 ft 284 kts 330°
2026-05-06 10:34 36.40897 -86.65891 13044 ft 308 kts 331°
2026-05-06 10:35 36.43006 -86.66782 13238 ft 332 kts 332°
2026-05-06 10:35 36.45270 -86.67727 13412 ft 355 kts 333°
2026-05-06 10:35 36.47678 -86.68721 13610 ft 374 kts 333°
2026-05-06 10:35 36.50184 -86.69744 14026 ft 383 kts 333°
2026-05-06 10:36 36.52727 -86.70780 14614 ft 386 kts 333°
2026-05-06 10:36 36.55280 -86.71828 15225 ft 388 kts 332°
2026-05-06 10:36 36.57853 -86.72892 15792 ft 391 kts 333°
2026-05-06 10:36 36.60544 -86.73670 16315 ft 411 kts 346°
2026-05-06 10:37 36.63427 -86.73780 16875 ft 419 kts 350°
2026-05-06 10:37 36.66373 -86.73826 17407 ft 423 kts 349°
2026-05-06 10:37 36.69324 -86.73898 17915 ft 426 kts 349°
2026-05-06 10:37 36.72297 -86.74009 18413 ft 430 kts 348°
2026-05-06 10:38 36.75303 -86.74141 18816 ft 434 kts 348°
2026-05-06 10:38 36.78316 -86.74314 19271 ft 434 kts 347°
2026-05-06 10:38 36.81323 -86.74551 19724 ft 436 kts 346°
2026-05-06 10:38 36.84371 -86.74818 20162 ft 438 kts 346°
2026-05-06 10:39 36.87418 -86.75090 20576 ft 442 kts 346°
2026-05-06 10:39 36.90502 -86.75360 21004 ft 444 kts 346°
2026-05-06 10:39 36.93593 -86.75624 21399 ft 447 kts 346°
2026-05-06 10:39 36.96708 -86.75885 21793 ft 451 kts 346°
2026-05-06 10:40 36.99862 -86.76147 22090 ft 456 kts 346°
2026-05-06 10:40 37.03033 -86.76408 22470 ft 458 kts 346°
2026-05-06 10:40 37.06220 -86.76668 22874 ft 460 kts 346°
2026-05-06 10:40 37.09405 -86.76928 23239 ft 462 kts 346°
2026-05-06 10:41 37.12630 -86.77193 23563 ft 465 kts 346°
2026-05-06 10:41 37.15838 -86.77458 23850 ft 468 kts 346°
2026-05-06 10:41 37.18039 -86.77639 24056 ft 469 kts 346°
2026-05-06 10:41 37.21294 -86.77907 24389 ft 471 kts 346°
2026-05-06 10:42 37.24570 -86.78177 24673 ft 473 kts 345°
2026-05-06 10:42 37.27857 -86.78449 24974 ft 474 kts 345°
2026-05-06 10:42 37.31150 -86.78721 25280 ft 475 kts 345°
2026-05-06 10:42 37.34450 -86.78995 25581 ft 476 kts 345°
2026-05-06 10:43 37.37734 -86.79396 25858 ft 472 kts 341°
2026-05-06 10:43 37.40968 -86.80016 26146 ft 470 kts 339°
2026-05-06 10:43 37.44191 -86.80737 26463 ft 470 kts 339°
2026-05-06 10:44 37.50632 -86.82230 27013 ft 473 kts 339°
2026-05-06 10:44 37.53891 -86.82960 27335 ft 474 kts 339°
2026-05-06 10:44 37.57128 -86.83662 27766 ft 471 kts 339°
2026-05-06 10:44 37.60354 -86.84344 28263 ft 468 kts 339°
2026-05-06 10:45 37.63553 -86.85013 28737 ft 466 kts 339°
2026-05-06 10:45 37.66751 -86.85680 29180 ft 464 kts 339°
2026-05-06 10:45 37.69928 -86.86340 29630 ft 465 kts 339°
2026-05-06 10:45 37.73135 -86.86970 29962 ft 464 kts 338°
2026-05-06 10:46 37.76283 -86.87749 30287 ft 462 kts 337°
2026-05-06 10:46 37.79445 -86.88456 30685 ft 462 kts 338°
2026-05-06 10:46 37.82611 -86.89108 31103 ft 460 kts 338°
2026-05-06 10:46 37.85758 -86.89741 31474 ft 459 kts 338°
2026-05-06 10:47 37.88902 -86.90376 31825 ft 458 kts 337°
2026-05-06 10:47 37.92012 -86.91012 32200 ft 456 kts 337°
2026-05-06 10:47 37.95178 -86.91669 32602 ft 454 kts 336°
2026-05-06 10:47 37.98286 -86.92318 33023 ft 451 kts 336°
2026-05-06 10:48 38.01378 -86.92970 33396 ft 450 kts 335°
2026-05-06 10:48 38.04455 -86.93623 33727 ft 449 kts 335°
2026-05-06 10:48 38.07539 -86.94280 34058 ft 448 kts 335°
2026-05-06 10:48 38.10562 -86.94923 34400 ft 446 kts 335°
2026-05-06 10:49 38.13619 -86.95572 34722 ft 444 kts 335°
2026-05-06 10:49 38.16658 -86.96218 35087 ft 442 kts 334°
2026-05-06 10:49 38.19682 -86.96859 35467 ft 438 kts 334°
2026-05-06 10:49 38.22678 -86.97494 35825 ft 435 kts 334°
2026-05-06 10:50 38.25663 -86.98131 36108 ft 434 kts 334°
2026-05-06 10:50 38.28642 -86.98770 36341 ft 434 kts 334°
2026-05-06 10:50 38.31615 -86.99408 36618 ft 433 kts 333°
2026-05-06 10:50 38.34567 -87.00039 36925 ft 431 kts 333°
2026-05-06 10:51 38.37513 -87.00669 37214 ft 429 kts 333°
2026-05-06 10:51 38.40462 -87.01300 37471 ft 428 kts 333°
2026-05-06 10:51 38.43396 -87.01930 37718 ft 427 kts 333°
2026-05-06 10:51 38.46306 -87.02554 37982 ft 425 kts 333°
2026-05-06 10:52 38.49233 -87.03182 38252 ft 424 kts 333°
2026-05-06 10:52 38.52137 -87.03806 38495 ft 423 kts 333°
2026-05-06 10:52 38.55033 -87.04429 38711 ft 422 kts 333°
2026-05-06 10:52 38.57923 -87.05052 38880 ft 421 kts 333°
2026-05-06 10:53 38.60817 -87.05677 39023 ft 422 kts 333°
2026-05-06 10:53 38.63705 -87.06301 39206 ft 421 kts 333°
2026-05-06 10:53 38.66599 -87.06926 39373 ft 421 kts 333°
2026-05-06 10:53 38.69479 -87.07548 39521 ft 421 kts 333°
2026-05-06 10:54 38.72376 -87.08175 39652 ft 421 kts 333°
2026-05-06 10:54 38.75262 -87.08799 39803 ft 421 kts 333°
2026-05-06 10:54 38.78141 -87.09422 39932 ft 421 kts 333°
2026-05-06 10:55 38.83939 -87.10683 39964 ft 423 kts 333°
2026-05-06 10:55 38.89749 -87.11943 39971 ft 424 kts 333°
2026-05-06 10:56 38.95556 -87.13202 39967 ft 423 kts 333°
2026-05-06 10:56 39.01362 -87.14465 39966 ft 423 kts 333°
2026-05-06 10:57 39.07152 -87.15728 39971 ft 422 kts 333°
2026-05-06 10:57 39.12950 -87.16997 39969 ft 423 kts 333°
2026-05-06 10:58 39.18753 -87.18267 39963 ft 423 kts 333°
2026-05-06 10:58 39.24555 -87.19539 39965 ft 423 kts 333°
2026-05-06 10:59 39.30371 -87.20815 39963 ft 424 kts 333°
2026-05-06 10:59 39.36198 -87.22099 39970 ft 425 kts 334°
2026-05-06 11:00 39.41989 -87.23374 39944 ft 426 kts 334°
2026-05-06 11:00 39.47833 -87.24664 39947 ft 426 kts 333°
2026-05-06 11:01 39.53470 -87.26450 39979 ft 412 kts 327°
2026-05-06 11:01 39.58948 -87.28606 39975 ft 413 kts 327°
2026-05-06 11:02 39.64439 -87.30761 39970 ft 414 kts 327°
2026-05-06 11:02 39.69989 -87.32895 39978 ft 415 kts 328°
2026-05-06 11:03 39.75528 -87.35006 39947 ft 416 kts 328°
2026-05-06 11:03 39.81089 -87.37126 39940 ft 418 kts 328°
2026-05-06 11:04 39.86668 -87.39256 39938 ft 418 kts 328°
2026-05-06 11:04 39.92250 -87.41390 39944 ft 419 kts 328°
2026-05-06 11:05 39.97853 -87.43537 39952 ft 419 kts 328°
2026-05-06 11:05 40.03444 -87.45685 39978 ft 420 kts 329°
2026-05-06 11:06 40.09059 -87.47845 39968 ft 421 kts 329°
2026-05-06 11:06 40.14679 -87.50009 39961 ft 421 kts 329°
2026-05-06 11:07 40.20293 -87.52175 39964 ft 421 kts 328°
2026-05-06 11:07 40.25914 -87.54349 39966 ft 421 kts 329°
2026-05-06 11:08 40.31592 -87.56288 39957 ft 434 kts 335°
2026-05-06 11:08 40.37587 -87.57488 39960 ft 437 kts 337°
2026-05-06 11:09 40.43601 -87.58589 39962 ft 437 kts 337°
2026-05-06 11:09 40.49623 -87.59743 39959 ft 437 kts 336°
2026-05-06 11:10 40.55634 -87.60935 39957 ft 437 kts 336°
2026-05-06 11:10 40.61643 -87.62142 39956 ft 437 kts 336°
2026-05-06 11:11 40.67643 -87.63350 39953 ft 436 kts 336°
2026-05-06 11:11 40.73649 -87.64561 39955 ft 436 kts 336°
2026-05-06 11:12 40.79649 -87.65772 39958 ft 436 kts 336°
2026-05-06 11:12 40.85638 -87.66983 39966 ft 436 kts 336°
2026-05-06 11:13 40.91660 -87.68204 39978 ft 437 kts 336°
2026-05-06 11:13 40.97676 -87.69426 39982 ft 438 kts 336°
2026-05-06 11:14 41.03708 -87.70653 39978 ft 439 kts 336°
2026-05-06 11:14 41.09711 -87.71876 39990 ft 440 kts 336°
2026-05-06 11:15 41.15767 -87.73114 39984 ft 442 kts 337°
2026-05-06 11:15 41.21854 -87.74359 39980 ft 443 kts 337°
2026-05-06 11:16 41.27954 -87.75608 39975 ft 444 kts 337°
2026-05-06 11:16 41.34064 -87.76862 40033 ft 445 kts 338°
2026-05-06 11:17 41.40221 -87.78049 39977 ft 445 kts 336°
2026-05-06 11:17 41.46370 -87.79410 39971 ft 448 kts 338°
2026-05-06 11:18 41.52530 -87.80683 39969 ft 448 kts 338°
2026-05-06 11:18 41.58698 -87.81947 39974 ft 449 kts 338°
2026-05-06 11:19 41.64872 -87.83220 39970 ft 449 kts 338°
2026-05-06 11:19 41.71047 -87.84501 39972 ft 449 kts 338°
2026-05-06 11:20 41.77190 -87.85780 40014 ft 449 kts 339°
2026-05-06 11:20 41.83351 -87.87032 39965 ft 451 kts 340°
2026-05-06 11:21 41.89530 -87.88313 39970 ft 449 kts 339°
2026-05-06 11:21 41.95696 -87.89635 39965 ft 449 kts 339°
2026-05-06 11:22 42.01867 -87.90941 39965 ft 451 kts 339°
2026-05-06 11:22 42.08081 -87.92246 39985 ft 451 kts 339°
2026-05-06 11:23 42.14289 -87.93552 39986 ft 452 kts 339°
2026-05-06 11:23 42.20508 -87.94863 39991 ft 453 kts 340°
2026-05-06 11:24 42.26563 -87.96615 39978 ft 444 kts 334°
2026-05-06 11:24 42.32504 -87.98874 39958 ft 443 kts 333°
2026-05-06 11:25 42.38434 -88.01145 39969 ft 444 kts 333°
2026-05-06 11:25 42.44408 -88.03375 39978 ft 446 kts 334°
2026-05-06 11:26 42.50396 -88.05581 39978 ft 446 kts 334°
2026-05-06 11:26 42.56399 -88.07792 39972 ft 447 kts 334°
2026-05-06 11:27 42.62400 -88.10008 39984 ft 447 kts 334°
2026-05-06 11:27 42.68411 -88.12234 39971 ft 448 kts 334°
2026-05-06 11:27 42.71435 -88.13359 39728 ft 453 kts 334°
2026-05-06 11:28 42.74469 -88.14486 39512 ft 453 kts 334°
2026-05-06 11:28 42.77509 -88.15613 39282 ft 449 kts 334°
2026-05-06 11:28 42.80499 -88.16719 39061 ft 446 kts 334°
2026-05-06 11:28 42.83497 -88.17833 38844 ft 445 kts 333°
2026-05-06 11:29 42.86485 -88.18947 38622 ft 444 kts 333°
2026-05-06 11:29 42.89460 -88.20059 38345 ft 443 kts 333°
2026-05-06 11:29 42.92433 -88.21171 38080 ft 443 kts 333°
2026-05-06 11:29 42.95404 -88.22284 37815 ft 442 kts 333°
2026-05-06 11:30 42.98373 -88.23396 37553 ft 442 kts 333°
2026-05-06 11:30 43.01339 -88.24508 37334 ft 443 kts 334°
2026-05-06 11:30 43.04261 -88.25605 37079 ft 443 kts 334°
2026-05-06 11:30 43.06279 -88.26362 36912 ft 444 kts 334°
2026-05-06 11:31 43.10231 -88.27848 36583 ft 445 kts 334°
2026-05-06 11:31 43.13224 -88.28952 36334 ft 447 kts 335°
2026-05-06 11:31 43.16260 -88.29929 36093 ft 450 kts 337°
2026-05-06 11:31 43.19326 -88.30839 35853 ft 451 kts 338°
2026-05-06 11:32 43.22399 -88.31737 35580 ft 451 kts 338°
2026-05-06 11:32 43.24471 -88.32350 35059 ft 452 kts 337°
2026-05-06 11:32 43.27573 -88.33291 34436 ft 462 kts 338°
2026-05-06 11:32 43.30710 -88.34251 34029 ft 459 kts 338°
2026-05-06 11:33 43.33833 -88.35212 32907 ft 466 kts 337°
2026-05-06 11:33 43.37005 -88.36197 32105 ft 467 kts 337°
2026-05-06 11:33 43.40164 -88.37170 31601 ft 462 kts 336°
2026-05-06 11:33 43.43315 -88.38015 31246 ft 465 kts 343°
2026-05-06 11:34 43.46587 -88.37951 30644 ft 480 kts 358°
2026-05-06 11:34 43.49859 -88.36728 29870 ft 499 kts 13°
2026-05-06 11:34 43.52993 -88.34479 28792 ft 514 kts 22°
2026-05-06 11:34 43.56043 -88.31975 27724 ft 518 kts 23°
2026-05-06 11:35 43.59114 -88.29388 26720 ft 518 kts 24°
2026-05-06 11:35 43.62219 -88.26769 25928 ft 517 kts 24°
2026-05-06 11:35 43.65268 -88.24228 24929 ft 519 kts 23°
2026-05-06 11:35 43.68397 -88.21648 23836 ft 512 kts 23°
2026-05-06 11:36 43.71440 -88.19155 22682 ft 504 kts 23°
2026-05-06 11:36 43.74371 -88.16761 21862 ft 489 kts 23°
2026-05-06 11:36 43.77278 -88.14395 21163 ft 480 kts 23°
2026-05-06 11:36 43.80115 -88.12083 20451 ft 467 kts 24°
2026-05-06 11:37 43.82910 -88.09805 19805 ft 469 kts 24°
2026-05-06 11:37 43.85774 -88.07483 19051 ft 482 kts 24°
2026-05-06 11:37 43.88632 -88.05153 18309 ft 470 kts 24°
2026-05-06 11:37 43.91423 -88.02867 17504 ft 463 kts 25°
2026-05-06 11:38 43.94029 -88.00723 16819 ft 448 kts 25°
2026-05-06 11:38 43.96698 -87.98530 16133 ft 439 kts 25°
2026-05-06 11:38 43.99294 -87.96394 15463 ft 431 kts 25°
2026-05-06 11:38 44.01827 -87.94306 14816 ft 418 kts 26°
2026-05-06 11:39 44.04319 -87.92254 14098 ft 410 kts 26°
2026-05-06 11:39 44.06750 -87.90250 13221 ft 401 kts 26°
2026-05-06 11:39 44.09141 -87.88280 13124 ft 398 kts 26°
2026-05-06 11:39 44.11502 -87.86331 13108 ft 395 kts 26°
2026-05-06 11:40 44.13866 -87.84377 13077 ft 393 kts 26°
2026-05-06 11:40 44.16187 -87.82455 12929 ft 380 kts 26°
2026-05-06 11:40 44.18439 -87.80588 12096 ft 373 kts 26°
2026-05-06 11:40 44.20695 -87.78960 11465 ft 354 kts 13°
2026-05-06 11:41 44.23009 -87.78558 11271 ft 321 kts 351°
2026-05-06 11:41 44.25075 -87.79196 11125 ft 292 kts 333°
2026-05-06 11:41 44.26770 -87.80510 11034 ft 268 kts 319°
2026-05-06 11:41 44.28170 -87.82171 10982 ft 263 kts 311°
2026-05-06 11:42 44.29302 -87.84119 10684 ft 256 kts 298°
2026-05-06 11:42 44.30007 -87.86366 10366 ft 255 kts 288°
2026-05-06 11:42 44.30581 -87.88676 10307 ft 249 kts 288°
2026-05-06 11:42 44.31140 -87.90962 10102 ft 249 kts 288°
2026-05-06 11:43 44.31702 -87.93274 9609 ft 255 kts 288°
2026-05-06 11:43 44.32272 -87.95625 9064 ft 254 kts 288°
2026-05-06 11:43 44.32838 -87.97955 8524 ft 253 kts 288°
2026-05-06 11:44 44.33949 -88.02540 7858 ft 247 kts 288°
2026-05-06 11:44 44.34498 -88.04810 7604 ft 249 kts 288°
2026-05-06 11:44 44.35058 -88.07124 7311 ft 254 kts 288°
2026-05-06 11:44 44.35629 -88.09486 7021 ft 258 kts 288°
2026-05-06 11:45 44.36206 -88.11878 6796 ft 259 kts 289°
2026-05-06 11:45 44.36760 -88.14171 6922 ft 243 kts 288°
2026-05-06 11:45 44.37282 -88.16339 6803 ft 234 kts 288°
2026-05-06 11:45 44.37801 -88.18493 6331 ft 231 kts 289°
2026-05-06 11:46 44.38308 -88.20596 5797 ft 226 kts 289°
2026-05-06 11:46 44.38805 -88.22661 5259 ft 223 kts 289°
2026-05-06 11:46 44.39294 -88.24698 4736 ft 220 kts 289°
2026-05-06 11:46 44.39764 -88.26661 4597 ft 201 kts 289°
2026-05-06 11:47 44.40186 -88.28422 4550 ft 183 kts 289°
2026-05-06 11:47 44.40647 -88.30046 4535 ft 177 kts 296°
2026-05-06 11:47 44.41186 -88.31547 4553 ft 168 kts 296°
2026-05-06 11:47 44.41700 -88.32976 4550 ft 162 kts 296°
2026-05-06 11:48 44.42200 -88.34371 4545 ft 160 kts 296°
2026-05-06 11:48 44.42698 -88.35771 4514 ft 162 kts 296°
2026-05-06 11:48 44.43205 -88.37198 4454 ft 165 kts 296°
2026-05-06 11:48 44.43510 -88.38747 4265 ft 168 kts 263°
2026-05-06 11:49 44.42973 -88.40113 4146 ft 162 kts 224°
2026-05-06 11:49 44.41997 -88.40894 3974 ft 160 kts 210°
2026-05-06 11:49 44.40997 -88.41588 3784 ft 160 kts 210°
2026-05-06 11:49 44.39997 -88.42279 3620 ft 161 kts 210°
2026-05-06 11:50 44.39004 -88.42962 3485 ft 156 kts 210°
2026-05-06 11:50 44.38048 -88.43618 3303 ft 150 kts 210°
2026-05-06 11:50 44.37135 -88.44243 3146 ft 144 kts 210°
2026-05-06 11:50 44.36242 -88.44855 2932 ft 142 kts 209°
2026-05-06 11:51 44.35357 -88.45463 2737 ft 142 kts 208°
2026-05-06 11:51 44.34473 -88.46070 2579 ft 142 kts 208°
2026-05-06 11:51 44.33580 -88.46681 2529 ft 143 kts 207°
2026-05-06 11:51 44.32690 -88.47290 2457 ft 144 kts 206°
2026-05-06 11:52 44.31770 -88.47895 2162 ft 148 kts 206°
2026-05-06 11:52 44.30839 -88.48529 1811 ft 150 kts 205°
2026-05-06 11:52 44.29929 -88.49159 1528 ft 142 kts 205°
2026-05-06 11:52 44.29082 -88.49752 1346 ft 133 kts 206°
2026-05-06 11:53 44.28251 -88.50335 1206 ft 136 kts 205°
2026-05-06 11:53 44.27377 -88.50929 1048 ft 144 kts 204°
2026-05-06 11:53 44.26478 -88.51537 902 ft 140 kts 204°
2026-05-06 11:53 44.25742 -88.52038 898 ft 88 kts 211°
2026-05-06 11:54 44.25437 -88.52246 891 ft 17 kts 205°
2026-05-06 11:54 44.25377 -88.52281 891 ft 2 kts 196°
2026-05-06 11:54 44.25358 -88.52281 891 ft 4 kts 172°
2026-05-06 11:54 44.25323 -88.52245 891 ft 8 kts 129°
2026-05-06 11:55 44.25325 -88.52167 891 ft 9 kts 53°
2026-05-06 11:55 44.25374 -88.52121 892 ft 9 kts 26°
2026-05-06 11:55 44.25428 -88.52088 893 ft 8 kts 25°
2026-05-06 11:55 44.25479 -88.52050 892 ft 8 kts 28°
2026-05-06 11:56 44.25529 -88.52017 892 ft 8 kts 26°
2026-05-06 11:56 44.25577 -88.51985 893 ft 8 kts 26°
2026-05-06 11:56 44.25623 -88.51951 895 ft 7 kts 27°
2026-05-06 11:56 44.25668 -88.51920 895 ft 7 kts 25°
2026-05-06 11:57 44.25713 -88.51892 896 ft 7 kts 24°
2026-05-06 11:57 44.25756 -88.51863 896 ft 7 kts 27°
2026-05-06 11:57 44.25798 -88.51834 897 ft 7 kts 26°
2026-05-06 11:57 44.25830 -88.51790 897 ft 7 kts 68°
2026-05-06 11:58 44.25847 -88.51723 895 ft 9 kts 72°
2026-05-06 11:58 44.25869 -88.51615 889 ft 14 kts 72°
2026-05-06 11:58 44.25891 -88.51576 888 ft 0 kts 32°
2026-05-06 11:58 44.25896 -88.51574 888 ft 2 kts 22°
2026-05-06 11:59 44.25931 -88.51567 889 ft 6 kts
2026-05-06 11:59 44.25949 -88.51567 889 ft 1 kts 359°
2026-05-06 11:59 44.25973 -88.51569 889 ft 5 kts 355°
2026-05-06 11:59 44.26021 -88.51568 889 ft 8 kts
2026-05-06 12:00 44.26079 -88.51537 889 ft 10 kts 35°
2026-05-06 12:00 44.26121 -88.51449 889 ft 12 kts 84°
2026-05-06 12:00 44.26122 -88.51335 887 ft 10 kts 89°
2026-05-06 12:00 44.26122 -88.51310 887 ft 0 kts 89°
2026-05-06 12:01 44.26122 -88.51307 887 ft 1 kts 90°
2026-05-06 12:01 44.26122 -88.51295 887 ft 2 kts 93°
2026-05-06 12:01 44.26121 -88.51288 887 ft 0 kts 94°
2026-05-06 12:01 44.26121 -88.51283 887 ft 2 kts 94°
2026-05-06 12:02 44.26120 -88.51279 887 ft 1 kts 101°
2026-05-06 12:02 44.26109 -88.51271 886 ft 1 kts 188°
2026-05-06 12:02 44.26099 -88.51278 885 ft 2 kts 207°
2026-05-06 12:02 44.26088 -88.51286 885 ft 2 kts 204°
2026-05-06 12:03 44.26086 -88.51287 885 ft 0 kts 204°
2026-05-06 12:03 44.26084 -88.51288 886 ft 1 kts 203°
2026-05-06 12:03 44.26080 -88.51291 886 ft 0 kts 203°